Hourly Data Report for October 17, 2014

All times are specified in Local Standard Time (LST). Add 1 hour to adjust for Daylight Saving Time where and when it is observed.

FREDERICTON
NEW BRUNSWICK

45°52'08.000" N
66°32'14.000" W
20.70 m
8101505
71700
YFC

Download Data

Hourly Data (October 2014)
Hourly Data Report for October 17, 2014
Temp Definition
°C
Dew Point Temp Definition
°C
Rel Hum Definition
%
Wind Dir Definition
10's deg

Wind Spd Definition
km/h
Visibility Definition
km
Stn Press Definition
kPa
Hmdx Definition


Wind Chill Definition


Weather Definition


TIME
00:00 Legend Double Dagger 13.5 13.4 99 5 13 8.1 101.06     Fog
01:00 Legend Double Dagger 13.7 13.6 99 7 15 8.1 100.99     Rain,Fog
02:00 Legend Double Dagger 14.3 14.2 99 7 11 4.8 100.89     Fog
03:00 Legend Double Dagger 16.1 16.0 99 9 9 16.1 100.78     LegendNANA
04:00 Legend Double Dagger 16.7 16.4 98 6 15 16.1 100.65     LegendNANA
05:00 Legend Double Dagger 18.1 17.5 96 9 17 16.1 100.54     LegendNANA
06:00 Legend Double Dagger 18.9 17.8 93 11 22 16.1 100.45     LegendNANA
07:00 Legend Double Dagger 19.3 17.8 91 12 17 16.1 100.37     LegendNANA
08:00 Legend Double Dagger 19.8 18.0 89 13 21 16.1 100.24     LegendNANA
09:00 Legend Double Dagger 19.2 18.1 93 12 24 16.1 100.07     Rain
10:00 Legend Double Dagger 18.9 17.8 93 12 39 12.9 99.84     Rain
11:00 Legend Double Dagger 19.6 18.3 92 14 35 16.1 99.74     Rain
12:00 Legend Double Dagger 19.0 16.9 88 18 28 16.1 99.70     Rain
13:00 Legend Double Dagger 18.1 16.1 88 19 26 16.1 99.70     LegendNANA
14:00 Legend Double Dagger 17.6 16.1 91 20 22 8.1 99.71     Rain,Fog
15:00 Legend Double Dagger 17.8 15.4 86 20 28 16.1 99.71     LegendNANA
16:00 Legend Double Dagger 18.2 14.6 79 19 32 16.1 99.77     LegendNANA
17:00 Legend Double Dagger 16.6 13.9 84 20 21 16.1 99.78     LegendNANA
18:00 Legend Double Dagger 15.3 13.4 88 19 21 16.1 99.90     LegendNANA
19:00 Legend Double Dagger 14.5 13.1 91 20 18 16.1 100.02     LegendNANA
20:00 Legend Double Dagger 13.8 12.9 94 22 13 16.1 100.08     LegendNANA
21:00 Legend Double Dagger 11.7 11.6 99 14 9 6.4 100.08     Fog
22:00 Legend Double Dagger 12.1 11.8 98 17 11 9.7 100.10     Fog
23:00 Legend Double Dagger 11.3 11.1 99 17 13 6.4 100.13     Fog

Notes on Data Quality.

Legend

  • E = Estimated
  • M = Missing
  • NA = Not Available
  • ‡ = Partner data that is not subject to review by the National Climate Archives
Date modified: